Regional Weather Roundup
Issued by NWS

Home | Current Version | Previous Version | Graphics & Text | Print | Product List | Glossary On
Versions: 1 2 3 4 5 6 7 8 9 10 11 12 13 14 15 16 17 18 19 20 21 22 23 24 25 26 27 28 29 30 31 32 33 34 35 36 37 38 39 40 41 42 43 44 45 46 47 48 49 50
000
ASUS43 KDMX 190101
RWRIA

WEATHER ROUNDUP FOR IOWA
NATIONAL WEATHER SERVICE DES MOINES IA
700 PM CST THU JAN 18 2018

NOTE: "FAIR" INDICATES FEW OR NO CLOUDS BELOW 12,000 FEET WITH NO
SIGNIFICANT WEATHER AND/OR OBSTRUCTIONS TO VISIBILITY.

* - THESE STATIONS ARE NOT NWS STATIONS...THUS NOT UNDER NWS
QUALITY CONTROL.  THEY ALSO DO NOT REPORT WEATHER SUCH
AS PRECIPITATION OR FOG.

IAZ001>003-012>014-020>022-031>034-043>046-190200-
   NORTHWEST IOWA

CITY           SKY/WX    TMP DP  RH WIND       PRES   REMARKS
CARROLL *      CLOUDY    30  23  74 SW14G21   29.91R WCI  20
CHEROKEE *     CLOUDY    30  25  83 SW6       29.87S WCI  24
DENISON *      CLOUDY    28  21  74 S9G16     29.92S WCI  20
LE MARS *      CLOUDY    32  25  74 S3        29.86R
ORANGE CITY *  CLOUDY    34  28  80 S6        29.85S WCI  29
SHELDON *      CLOUDY    34  28  80 S8        29.83R WCI  27
SIOUX CITY     CLOUDY    32  25  75 SE5       29.87F WCI  27
SPENCER        CLOUDY    32  25  75 SW8       29.86S WCI  25
STORM LAKE *   CLOUDY    30  25  80 SW15      29.85F WCI  19
$$

IAZ055>058-069>071-079>083-090>094-190200-
   SOUTHWEST IOWA

CITY           SKY/WX    TMP DP  RH WIND       PRES   REMARKS
ATLANTIC *     CLOUDY    28  23  80 SW8       29.95S WCI  20
AUDUBON *      CLOUDY    30  23  74 SW10G20   29.94R WCI  21
CLARINDA *     CLOUDY    30  25  80 S7          N/A  WCI  23
COUNCIL BLFS * CLOUDY    32  23  69 S12       29.95R WCI  23
CRESTON *      CLOUDY    30  23  74 S13       29.97F WCI  20
HARLAN  *      CLOUDY    30  23  74 SW13      29.97R WCI  20
LAMONI         CLOUDY    33  21  61 S15       30.00S WCI  23
RED OAK *      CLOUDY    30  25  80 S8        29.98R WCI  23
SHENANDOAH *   CLOUDY    28  25  86 S5        29.99R WCI  23
$$

IAZ047>049-059>061-072>074-084-190200-
   CENTRAL IOWA

CITY           SKY/WX    TMP DP  RH WIND       PRES   REMARKS
AMES           CLOUDY    30  23  75 SW12      29.93R WCI  20
ANKENY *       CLOUDY    32  21  64 SW9       29.96S WCI  24
BOONE *        CLOUDY    32  23  69 SW16G23   29.91R WCI  21
CHARITON *     CLOUDY    34  21  60 SW15G21   29.97F WCI  24
DES MOINES     CLOUDY    33  21  61 SW13      29.95S WCI  24
GRINNELL*      CLOUDY    32  22  67 S14       29.96S WCI  22
KNOXVILLE *    CLOUDY    34  19  55 SW10      29.96S WCI  26
MARSHALLTOWN   CLOUDY    32  22  66 SW16      29.92R WCI  21
NEWTON *       CLOUDY    32  21  64 S13       29.96S WCI  22
PELLA *        CLOUDY    33  21  62 SW7       29.99S WCI  26
PERRY *          N/A     29  22  73 SW9       29.93R WCI  21
$$

IAZ004>006-015-016-023>025-035-036-190200-
   NORTH CENTRAL IOWA

CITY           SKY/WX    TMP DP  RH WIND       PRES   REMARKS
ALGONA *       CLOUDY    30 N/A N/A S12       29.86F WCI  21
CLARION *      CLOUDY    28  27  93 SW8       29.90R WCI  20
ESTHERVILLE    CLOUDY    32  27  81 SW9       29.83F WCI  24
FORT DODGE *   CLOUDY    30  23  75 SW12      29.90R WCI  20
MASON CITY     CLOUDY    31  23  72 SW12      29.88R WCI  22
FOREST CITY *    N/A     30  27  86 SW9       29.87R WCI  22
WEBSTER CITY * CLOUDY    30  23  74 SW16      29.88R WCI  19
IOWA FALLS *     N/A     32  24  72 S16       29.90R WCI  21
$$

IAZ007>011-017>019-026>030-037>042-050>054-066-190200-
   NORTHEAST IOWA

CITY           SKY/WX    TMP DP  RH WIND       PRES   REMARKS
CEDAR RAPIDS     N/A     30  21  69 S13       29.94F WCI  20
CHARLES CITY *   N/A     28  23  80 S7        29.90R WCI  21
CLINTON *        N/A     26  20  77 SW12      29.99F WCI  16
DECORAH *        N/A     30  23  74 SW8       29.88R WCI  23
DUBUQUE          N/A     27  19  72 SW15      29.92F WCI  15
MONTICELLO *     N/A     30  21  69 S8        29.94F WCI  23
OELWEIN *        N/A     28  25  86 S10       29.91R WCI  19
WATERLOO         N/A     30  21  69 S10       29.91R WCI  21
$$

IAZ064-065-067-068-078-190200-
   EAST CENTRAL IOWA

CITY           SKY/WX    TMP DP  RH WIND       PRES   REMARKS
DAVENPORT        N/A     33  20  58 SW15G24   30.01F WCI  23
IOWA CITY        N/A     32  20  61 S9        30.00F WCI  24
MT. PLEASANT * CLOUDY    32  21  64 S15       30.03F WCI  22
MUSCATINE *      N/A     32  21  64 S12       30.02F WCI  23
QUAD CITIES      N/A     32  21  64 SW9       30.01S WCI  24
$$

IAZ062-063-075>077-085>089-095>099-190200-
   SOUTHEAST IOWA

CITY           SKY/WX    TMP DP  RH WIND       PRES   REMARKS
BURLINGTON     CLEAR     29  20  69 SW9       30.04S WCI  20
FAIRFIELD *    CLOUDY    32  19  59 S14       30.00F WCI  22
FORT MADISON * CLOUDY    32  21  64 SW8       30.05F WCI  25
KEOKUK *       CLOUDY    34  21  60 SW12      30.05S WCI  25
OSKALOOSA *      N/A     30  22  71 SW9       29.99S WCI  22
OTTUMWA        CLOUDY    32  20  61 S15       29.99F WCI  22
WASHINGTON *   CLOUDY    32  23  69 SW15G21   30.01S WCI  22
$$

ABBREVIATIONS USED IN REMARKS
   TC - TEMPERATURES IN CELSIUS
  WCI - WIND CHILL INDEX
   HX - HEAT INDEX
  VSB - VISIBILITY
$$




USA.gov is the U.S. government's official web portal to all federal, state and local government web resources and services.